Regional Weather Roundup
Issued by NWS

Home | Current Version | Previous Version | Graphics & Text | Print | Product List | Glossary On
Versions: 1 2 3 4 5 6 7 8 9 10 11 12 13 14 15 16 17 18 19 20 21 22 23 24 25 26 27 28 29 30 31 32 33 34 35 36 37 38 39 40 41 42 43 44 45 46 47 48 49 50
000
ASUS43 KDMX 042207
RWRIA

WEATHER ROUNDUP FOR IOWA
NATIONAL WEATHER SERVICE DES MOINES IA
500 PM CDT MON MAY 04 2015

NOTE: "FAIR" INDICATES FEW OR NO CLOUDS BELOW 12,000 FEET WITH NO
SIGNIFICANT WEATHER AND/OR OBSTRUCTIONS TO VISIBILITY.

* - THESE STATIONS ARE NOT NWS STATIONS...THUS NOT UNDER NWS
QUALITY CONTROL.  THEY ALSO DO NOT REPORT WEATHER SUCH
AS PRECIPITATION OR FOG.

IAZ001>003-012>014-020>022-031>034-043>046-042300-
   NORTHWEST IOWA

CITY           SKY/WX    TMP DP  RH WIND       PRES   REMARKS
CARROLL *      DRIZZLE   61  57  88 NE9       30.12S
CHEROKEE *     CLOUDY    68  37  32 E13       30.13S
DENISON *      LGT RAIN  57  57 100 NE13      30.10S
LE MARS *      MOSUNNY   72  36  26 E13       30.13S
ORANGE CITY *  SUNNY     72  36  26 E12G20    30.12F
SHELDON *      SUNNY     72  37  28 E14G23    30.11F
SIOUX CITY     CLOUDY    65  45  48 E14G22    30.12F
SPENCER        PTSUNNY   69  37  30 E14       30.14F
STORM LAKE *   MOSUNNY   61  46  59 E14       30.14S
$$

IAZ055>058-069>071-079>083-090>094-042300-
   SOUTHWEST IOWA

CITY           SKY/WX    TMP DP  RH WIND       PRES   REMARKS
ATLANTIC *     PTSUNNY   64  63  94 NE10      30.07S
AUDUBON *      DRIZZLE   64  59  82 NE10      30.10F
CLARINDA *     DRIZZLE   66  64  94 N7        30.06R
COUNCIL BLFS * CLOUDY    63  63 100 N13       30.08S
CRESTON *      CLOUDY    66  63  88 N9        30.08F
HARLAN  *      CLOUDY    63  63 100 NE15      30.12S
LAMONI         CLOUDY    74  62  66 NE6       30.04F
RED OAK *      CLOUDY    66  63  88 NE7       30.07R
SHENANDOAH *   CLOUDY    66  64  94 NE12      30.05S
$$

IAZ047>049-059>061-072>074-084-042300-
   CENTRAL IOWA

CITY           SKY/WX    TMP DP  RH WIND       PRES   REMARKS
AMES           LGT RAIN  66  58  75 NE12      30.10R
ANKENY *       PTSUNNY   66  63  88 N8        30.09R
CHARITON *     MOSUNNY   73  63  68 E7        30.04S
DES MOINES     CLOUDY    69  60  73 N6        30.09R
GRINNELL*      LGT RAIN  68  61  77 NE13      30.07S
KNOXVILLE *    MOSUNNY   70  61  73 NE13      30.03F
MARSHALLTOWN   CLOUDY    67  60  78 NE13      30.08R
PELLA *        CLOUDY    72  64  78 E8        30.06F
PERRY *        LGT RAIN  64  61  88 NE8       30.10S
$$

IAZ004>006-015-016-023>025-035-036-042300-
   NORTH CENTRAL IOWA

CITY           SKY/WX    TMP DP  RH WIND       PRES   REMARKS
ALGONA *       SUNNY     70  37  30 NE12G17   30.14S
CLARION *      MOSUNNY   66  45  45 E10       30.13F
ESTHERVILLE    PTSUNNY   69  33  26 NE12G21   30.14S
FORT DODGE *   CLOUDY    64  46  52 NE13      30.13F
MASON CITY     CLOUDY    68  39  34 NE12      30.15F
FOREST CITY *  SUNNY     68  37  32 NE8G23    30.14S
IOWA FALLS *   LGT RAIN  64  52  63 NE10      30.12S
$$

IAZ007>011-017>019-026>030-037>042-050>054-066-042300-
   NORTHEAST IOWA

CITY           SKY/WX    TMP DP  RH WIND       PRES   REMARKS
CEDAR RAPIDS   CLOUDY    70  62  76 E14       30.07F
CHARLES CITY * PTSUNNY   68  45  42 E12       30.14S
CLINTON *      PTSUNNY   72  61  68 NE10      30.11F
DECORAH *      SUNNY     70  41  35 NE6       30.13S
DUBUQUE        CLOUDY    71  58  63 NE7       30.10F
MONTICELLO *   PTSUNNY   72  61  68 E7        30.09F
OELWEIN *      PTSUNNY   70  57  64 E12       30.11F
WATERLOO       CLOUDY    67  58  72 NE10      30.09F
$$

IAZ064-065-067-068-078-042300-
   EAST CENTRAL IOWA

CITY           SKY/WX    TMP DP  RH WIND       PRES   REMARKS
DAVENPORT      PTSUNNY   73  60  63 E14       30.08F
IOWA CITY      CLOUDY    72  62  71 NE10      30.07F
MT. PLEASANT * CLOUDY    79  55  44 SE8       30.02F
MUSCATINE *    SUNNY     75  63  64 NE14      30.05F
QUAD CITIES    PTSUNNY   75  61  61 NE14      30.06F
$$

IAZ062-063-075>077-085>089-095>099-042300-
   SOUTHEAST IOWA

CITY           SKY/WX    TMP DP  RH WIND       PRES   REMARKS
BURLINGTON     CLOUDY    76  61  59 E7        30.02F THUNDER
FAIRFIELD *    MOSUNNY   73  63  68 NE13G20   30.04S
FORT MADISON * LGT RAIN  68  63  83 SW8       30.06R
KEOKUK *       CLOUDY    70  64  83 N6        30.03S
OSKALOOSA *      N/A     75  61  60 NE16      30.05R
CENTERVILLE *  MOSUNNY   73  66  78 NE6       30.04F
OTTUMWA        TSTM      74  63  68 NE14      30.03R
WASHINGTON *   SUNNY     75  72  88 NE15      30.04F
$$

ABBREVIATIONS USED IN REMARKS
   TC - TEMPERATURES IN CELSIUS
  WCI - WIND CHILL INDEX
   HX - HEAT INDEX
  VSB - VISIBILITY
$$




USA.gov is the U.S. government's official web portal to all federal, state and local government web resources and services.